RH
3 3 3 3 3 3 3 3 3 3 3 3 3 3 3 5 3 9 17 17 14 11 13 14 10 7 7 8 13 7 7 20 28 32 31 34 31 32 59 63 47 41 44 42 33 25 17 14 11 7 6 7 9 10 11 11 11 10 11 12 12 13 11 9 7 7 6 9 11 10 16 26 32 34 32 26 26 46 59 60 57 51 44 34 26 19 15 12 10 9 8 8 7 8 10 12 14
2 3 2 3 3 2 3 2 3 3 3 3 3 4 4 5 10 22 23 22 24 11 6 7 6 8 7 5 7 4 5 14 22 25 27 28 21 26 51 61 53 40 35 35 32 23 12 9 6 5 6 7 9 9 11 11 11 12 13 14 13 12 10 8 6 7 8 9 11 11 12 17 22 21 19 19 32 56 63 62 61 54 46 36 28 20 15 13 11 9 8 8 8 9 10 12 15
3 3 3 3 3 3 3 3 3 3 3 3 3 6 6 9 20 28 24 24 22 6 3 5 7 10 10 9 8 12 13 12 16 21 26 26 24 25 32 41 39 22 13 17 18 12 7 6 5 6 7 9 10 10 11 11 12 14 14 13 12 10 9 8 6 7 10 11 11 12 12 14 19 19 17 24 45 64 66 65 63 56 48 39 30 22 16 14 12 10 9 8 8 9 10 12 16
3 3 3 3 2 3 2 3 3 2 3 2 7 15 15 18 25 28 22 15 10 4 5 5 6 6 7 14 11 18 31 32 30 28 30 30 30 28 26 29 24 13 11 12 11 7 5 5 5 7 8 10 11 11 11 12 13 14 13 10 9 9 9 8 8 9 11 12 12 12 14 15 20 23 26 40 58 68 68 66 64 58 50 41 32 24 18 15 13 11 10 9 8 9 10 12 15
3 3 3 3 3 3 2 3 3 3 4 2 12 26 23 22 29 27 15 6 5 5 6 5 6 6 7 16 17 24 39 43 42 39 36 35 37 36 30 24 18 17 15 13 9 5 4 5 6 8 9 10 10 11 11 12 13 12 10 9 9 9 10 9 9 9 11 13 14 15 17 20 24 28 38 56 67 69 69 66 65 59 51 42 33 26 20 17 14 13 11 10 9 8 10 11 14
4 4 3 3 3 3 3 3 2 3 3 2 13 28 24 23 27 19 7 4 6 5 7 7 5 17 22 16 18 27 40 48 52 52 49 44 44 42 31 20 17 17 13 10 7 4 5 5 7 8 9 11 10 11 12 13 12 11 11 10 11 11 11 11 10 9 11 15 17 20 23 29 33 37 49 66 72 70 68 65 64 61 54 44 35 28 22 19 16 14 13 11 11 10 10 11 13
4 4 4 3 3 3 3 3 3 3 4 5 13 25 26 25 21 11 7 6 9 7 8 10 4 22 36 27 28 29 31 42 50 51 49 44 40 35 22 12 10 9 9 7 5 6 7 8 9 10 12 14 14 14 14 14 14 14 14 14 14 14 14 12 11 9 13 19 23 26 31 41 48 53 62 74 78 71 67 65 65 63 58 46 37 32 26 21 17 16 15 13 13 12 11 12 15
4 4 4 4 4 3 3 3 3 3 4 9 17 25 22 18 15 11 12 12 12 7 7 9 2 15 32 33 40 43 43 46 50 49 44 39 32 24 14 9 7 7 9 8 8 8 10 12 12 14 17 18 18 18 18 16 16 18 18 20 20 21 19 16 14 11 15 24 29 32 38 55 68 75 79 81 79 73 70 68 66 62 56 47 41 36 29 23 19 17 16 16 15 14 13 13 17
4 4 4 4 4 3 3 4 3 4 6 11 22 28 21 10 9 10 12 11 9 9 10 7 9 20 19 26 40 46 57 60 58 53 47 42 30 19 15 12 12 11 11 11 9 11 15 16 16 16 19 21 21 21 21 19 19 25 27 29 30 29 25 20 16 13 20 27 34 40 48 73 90 94 92 82 79 79 75 71 68 63 56 49 41 35 29 24 20 19 17 18 17 16 16 16 19
4 4 4 4 4 4 4 4 3 4 6 13 24 28 19 6 3 6 7 8 9 8 8 7 24 32 7 16 37 38 47 52 55 56 50 42 28 19 18 17 16 15 13 12 10 12 15 14 15 18 22 23 23 25 26 27 30 37 40 40 39 37 31 23 17 17 25 30 38 50 64 88 99 100 98 84 81 83 77 75 72 68 63 50 40 35 30 26 23 21 20 20 20 19 18 18 21
5 4 5 5 4 5 4 4 5 7 10 16 28 27 12 4 3 4 5 7 8 5 5 7 24 30 13 28 44 44 46 45 53 57 49 40 32 27 24 22 18 14 11 9 11 13 12 13 18 25 29 31 35 40 42 44 44 45 43 42 42 40 34 25 20 22 29 34 46 65 81 97 101 98 98 92 89 84 80 79 72 70 67 51 41 37 32 29 26 24 22 21 21 21 21 21 21
5 4 5 5 4 5 4 5 9 19 23 21 29 25 7 4 3 4 6 4 4 4 10 17 23 23 26 47 54 53 54 51 55 52 43 38 34 34 30 24 16 15 14 10 15 21 22 23 25 25 27 40 52 52 57 54 39 31 29 33 39 41 37 29 26 27 33 42 55 77 88 90 92 92 95 98 94 89 88 81 73 74 68 52 43 39 35 30 27 25 24 23 22 22 23 23 22
5 5 5 5 5 5 5 6 15 29 28 24 28 22 8 4 6 7 4 4 5 1 12 20 16 15 23 45 50 51 60 59 58 49 40 40 38 35 27 17 10 11 13 12 14 19 24 25 23 19 19 34 40 36 44 39 21 18 23 35 43 44 42 35 33 33 41 53 63 79 85 79 84 94 98 98 93 93 94 87 84 81 66 51 45 41 36 30 26 24 22 22 22 21 23 24 24
5 6 5 5 5 5 6 6 21 32 27 27 25 19 11 7 8 5 3 5 2 5 28 25 7 10 13 29 42 51 70 71 66 56 44 45 39 27 17 11 9 9 12 14 14 12 14 16 16 15 15 17 16 15 19 17 22 31 38 48 49 47 47 43 41 41 48 61 69 75 82 88 95 99 96 91 92 97 96 91 90 81 64 53 49 44 37 31 27 23 21 19 19 20 21 22 25
6 7 5 6 5 6 7 6 20 30 30 32 24 20 15 9 7 4 6 3 5 24 42 33 22 24 14 28 54 63 78 81 72 62 54 47 33 21 16 14 13 11 11 12 12 11 11 11 10 11 12 13 15 18 18 26 42 49 50 52 49 50 53 51 50 49 50 58 67 72 83 95 94 91 89 89 94 98 95 93 90 76 62 56 50 43 38 35 29 25 22 19 18 19 20 20 23
7 7 6 6 5 6 8 11 23 28 31 29 23 25 17 13 9 4 8 1 19 43 33 24 29 34 33 50 73 76 78 80 73 66 59 45 32 28 21 15 13 9 8 9 10 10 10 8 7 8 14 27 42 44 40 45 53 54 51 48 49 55 60 61 58 56 54 58 72 83 93 95 86 84 87 91 97 98 98 96 85 70 61 56 50 47 46 42 35 31 27 23 20 18 20 20 22
8 7 6 6 6 8 9 21 36 33 32 29 22 21 16 20 13 4 8 3 17 33 22 18 26 38 55 74 86 83 80 81 78 66 54 42 34 28 15 9 8 6 7 8 10 9 7 6 8 14 19 34 51 52 49 51 53 50 46 49 55 62 68 69 68 64 61 69 87 97 98 92 87 90 92 95 100 100 98 89 74 65 60 56 54 55 53 49 43 37 33 28 24 21 22 22 22
9 7 7 6 7 9 12 29 44 36 34 35 23 11 11 20 17 9 10 6 7 21 26 19 32 49 58 80 90 82 80 79 72 58 47 38 27 14 6 7 6 7 10 8 9 9 8 8 16 28 35 44 45 41 46 48 46 41 43 54 62 70 74 73 77 72 68 82 97 99 96 94 94 98 99 97 96 94 86 75 67 62 58 55 56 56 55 54 50 46 41 36 30 26 24 25 26
10 9 8 7 8 9 18 36 44 39 37 35 23 9 10 15 16 15 12 10 4 19 37 26 43 58 54 76 86 76 69 60 51 45 36 23 13 7 5 6 7 9 10 10 11 15 20 24 31 34 37 44 37 32 40 40 37 38 46 57 63 71 74 78 82 70 73 93 99 98 100 100 100 100 98 93 90 86 75 67 64 61 58 56 55 53 53 53 51 47 43 41 38 31 27 26 26
11 11 8 8 9 10 28 47 45 42 39 30 21 10 12 14 12 12 8 12 8 20 39 34 49 64 65 75 74 66 50 37 36 30 20 12 7 6 6 6 7 9 10 12 11 16 29 37 40 34 29 33 30 28 32 30 35 42 49 59 65 72 77 82 77 60 71 96 99 98 98 97 100 97 92 88 85 78 70 66 64 61 56 53 53 53 53 50 45 41 39 41 43 39 33 29 30
13 11 9 11 11 14 32 49 47 42 33 23 18 9 13 15 10 9 6 10 18 32 40 42 64 80 84 75 56 46 33 32 35 23 12 8 6 5 6 8 7 7 9 10 9 17 32 35 35 30 24 27 32 36 34 29 35 44 51 62 66 72 79 79 69 55 68 95 100 96 89 89 95 91 85 82 79 71 64 62 59 55 51 53 58 60 55 47 42 39 39 40 43 45 42 38 38
14 12 12 13 10 21 42 53 47 34 23 17 10 8 18 14 6 8 7 10 23 46 51 52 78 90 90 79 56 42 33 36 38 26 16 8 7 7 6 6 6 7 8 9 7 12 20 21 26 26 21 29 39 45 43 35 39 48 55 66 65 68 76 75 65 52 64 93 100 94 85 81 85 84 82 76 68 60 55 53 51 48 50 55 57 53 46 42 44 42 42 45 47 51 50 48 47
14 13 15 15 12 21 42 57 46 19 10 12 8 12 17 9 9 7 9 23 28 39 43 46 77 90 88 83 72 60 44 41 43 30 15 9 8 6 6 6 6 6 6 7 5 6 9 11 20 23 21 35 47 50 46 38 45 56 59 65 66 65 71 75 70 55 64 91 100 96 85 78 78 77 74 67 63 61 54 49 47 45 45 45 43 36 30 36 44 43 48 53 52 57 58 50 48
15 15 15 16 17 18 24 37 30 9 4 11 11 14 11 6 14 9 16 39 32 30 37 43 74 88 86 84 76 70 55 45 49 38 19 12 9 6 7 6 5 6 5 6 6 5 7 8 17 26 25 40 56 52 44 43 56 64 60 65 71 70 75 82 79 69 73 92 101 94 80 77 75 67 61 56 54 56 50 42 39 39 38 42 47 37 27 33 35 35 48 58 66 78 76 62 56
16 16 17 16 16 19 21 21 15 8 8 12 11 10 9 7 16 18 25 30 16 32 52 49 67 78 78 84 75 68 62 52 48 41 26 11 8 7 5 6 5 5 6 5 6 5 8 12 20 29 28 42 61 53 46 54 63 67 59 65 81 82 85 88 84 80 83 95 99 85 76 77 67 57 58 60 56 48 42 39 36 36 38 45 56 50 37 33 32 38 50 64 84 91 83 81 80
17 16 18 18 15 20 23 17 11 10 9 11 11 10 10 9 15 20 20 17 7 23 38 37 63 77 70 77 78 68 59 48 37 29 19 8 8 8 6 8 4 4 7 4 7 12 18 26 27 29 28 38 56 58 60 67 68 68 63 68 87 91 91 90 82 82 87 93 93 81 76 74 63 55 60 71 66 51 43 38 36 38 39 40 46 52 47 42 47 54 57 69 90 87 75 81 84
18 19 18 18 17 18 17 13 11 13 12 12 12 11 11 12 14 13 15 26 22 14 15 20 45 57 49 63 76 66 51 39 28 18 10 7 9 9 6 6 5 5 4 2 9 15 19 27 33 40 53 65 74 72 67 69 69 68 71 78 88 91 90 90 89 88 83 82 85 80 74 72 71 64 62 71 62 48 42 35 35 35 32 31 32 40 44 49 58 60 63 78 90 86 78 79 82
18 19 18 17 18 16 16 15 12 14 15 12 13 12 13 12 12 13 13 21 19 9 15 22 27 25 26 52 69 61 51 35 21 13 8 8 8 8 6 5 6 3 4 7 8 13 19 31 47 59 75 87 89 82 70 72 75 69 76 87 91 88 82 88 97 89 77 77 80 74 70 69 65 55 52 58 50 39 34 29 33 28 22 25 28 34 41 57 68 65 72 80 78 76 77 79 85
18 18 17 16 17 17 15 15 14 16 15 13 14 13 14 12 13 14 10 26 33 13 11 19 17 11 15 50 75 70 55 30 15 13 9 7 7 6 6 5 5 4 7 6 6 25 40 44 56 64 72 81 80 78 74 77 78 70 77 86 87 83 77 87 91 79 71 74 75 72 69 58 46 42 41 41 38 31 24 22 26 22 18 21 28 35 44 63 74 68 71 75 71 70 71 70 76
18 17 17 16 17 17 16 16 15 15 16 16 15 12 14 13 15 14 12 40 53 23 9 11 10 13 23 53 76 72 51 23 14 15 10 8 7 5 6 6 6 5 4 6 16 40 51 52 57 62 76 89 88 85 80 81 81 75 78 79 77 78 79 83 78 74 74 70 72 71 60 45 37 35 31 26 25 22 19 19 19 17 17 19 23 30 41 61 71 67 65 70 71 68 69 68 72
18 17 17 17 16 15 15 16 15 16 17 17 16 14 15 15 17 15 15 30 31 17 15 13 10 20 35 53 64 62 45 20 13 13 10 9 6 5 8 4 6 17 28 34 37 41 49 56 55 58 78 94 97 95 90 93 94 84 80 77 75 81 82 74 70 76 74 69 77 68 46 35 31 25 20 17 16 15 15 14 14 13 13 15 19 26 36 47 60 65 58 59 60 58 68 74 76
16 16 16 15 15 15 15 15 14 15 16 17 17 15 15 19 23 17 18 29 20 12 21 19 16 23 36 54 57 53 43 21 12 11 9 8 6 7 7 5 13 31 44 46 49 56 55 54 52 55 73 90 96 97 96 100 96 86 82 79 77 81 78 73 78 81 66 60 66 52 34 29 22 16 15 13 11 12 11 10 13 12 12 16 19 23 29 33 44 54 50 51 50 47 63 72 75
14 14 14 15 14 13 14 15 18 16 13 18 17 15 17 18 28 29 29 43 32 15 22 25 24 23 30 49 52 47 42 26 13 10 8 8 8 7 5 14 28 36 47 59 66 68 50 43 54 54 66 93 100 94 93 96 94 84 78 76 78 77 74 74 75 69 55 48 45 34 27 23 16 14 13 11 10 9 9 11 10 10 12 17 20 21 25 27 32 40 39 41 39 41 59 67 65
13 13 11 13 14 15 14 16 30 31 20 26 23 14 17 19 34 47 47 50 37 21 24 26 22 21 29 45 49 42 38 26 13 9 10 8 8 8 7 20 37 39 52 65 60 53 42 40 53 49 58 88 97 92 88 91 95 89 81 84 86 78 70 66 56 48 45 41 33 26 22 18 15 14 12 11 10 8 9 10 8 11 14 15 20 22 21 21 23 28 29 30 35 41 51 55 50
16 21 19 15 10 15 18 19 37 42 28 35 40 20 13 24 40 50 48 46 48 42 30 22 17 15 26 42 44 38 35 26 13 10 11 7 8 11 11 21 37 43 51 56 50 54 55 51 52 46 51 68 74 77 80 84 92 92 92 92 88 77 64 52 42 36 34 30 26 22 20 18 15 13 12 11 9 8 8 8 7 11 15 13 13 15 15 14 14 18 19 20 30 33 36 43 43
45 53 55 47 26 18 25 26 31 39 32 34 45 35 16 19 38 52 47 41 62 68 37 23 24 14 18 31 40 43 39 24 12 12 11 7 12 16 21 28 31 38 49 54 56 64 67 62 58 49 47 49 46 53 66 78 84 87 90 87 82 75 59 43 33 27 24 23 24 23 22 20 17 15 13 11 10 9 8 7 7 8 10 9 7 8 10 10 10 12 13 13 18 19 22 31 36
66 67 70 72 54 36 39 36 29 37 40 36 43 46 30 17 28 54 60 43 49 59 39 29 28 17 14 23 39 47 37 19 12 15 13 10 15 18 26 30 27 38 50 52 55 57 59 60 55 49 51 50 41 44 56 73 85 88 88 85 82 72 53 37 27 22 22 23 25 27 29 27 25 22 16 13 11 11 11 10 10 8 7 7 5 7 7 8 10 10 9 9 11 13 14 20 33
43 56 65 70 59 47 47 43 39 41 42 46 50 48 36 21 23 43 60 55 39 39 41 34 26 17 14 20 34 40 30 18 12 15 18 17 19 26 40 40 40 59 62 55 56 48 45 51 48 47 55 57 57 58 61 76 92 91 88 86 81 65 46 34 26 24 27 29 33 34 34 33 31 28 23 19 16 15 15 13 12 11 9 8 6 6 5 7 9 7 7 8 9 10 11 14 25
16 38 54 58 58 53 48 46 48 47 45 51 58 61 42 21 32 41 47 57 39 24 30 29 23 19 15 19 26 27 22 17 13 13 19 22 26 47 72 66 62 75 66 52 51 40 37 46 45 44 47 50 60 68 71 84 93 90 89 87 76 58 44 37 33 33 35 35 35 33 32 32 31 30 27 25 22 21 19 15 14 12 11 10 8 7 7 8 8 6 7 10 11 10 12 14 15
10 21 27 38 59 59 48 50 53 48 47 48 59 76 60 41 49 36 33 59 45 21 26 28 23 19 17 22 23 24 22 15 11 14 21 25 33 61 84 80 75 76 62 49 44 36 34 37 39 42 42 45 57 68 73 82 88 89 90 83 68 54 46 44 41 40 38 35 33 32 32 32 31 31 30 28 26 23 19 16 14 13 12 11 10 9 9 10 8 7 7 8 10 9 10 14 13
10 15 14 22 53 63 52 55 58 53 49 44 48 58 59 69 72 38 35 65 47 22 30 30 23 19 20 23 21 22 21 14 15 21 28 32 44 68 81 80 78 69 57 51 44 38 34 34 39 42 44 55 66 70 73 77 82 87 85 72 60 52 48 48 46 42 38 35 33 32 32 32 31 31 29 27 25 21 19 17 14 14 12 11 11 11 11 11 9 8 9 7 7 9 12 16 14
10 12 12 14 39 62 60 57 61 59 50 50 51 42 39 49 50 40 46 49 28 20 29 26 20 24 26 24 20 22 22 18 14 17 35 57 64 63 63 68 70 63 58 60 58 52 47 45 47 47 53 65 70 72 79 81 82 84 76 64 57 53 52 54 51 45 39 36 33 32 32 31 29 28 25 23 22 22 20 18 16 14 12 12 11 12 13 14 13 12 11 10 8 10 15 16 12
10 11 12 12 25 50 61 64 71 62 50 68 70 47 40 35 28 44 52 35 21 22 25 20 19 26 26 23 24 25 24 18 17 37 66 78 64 42 45 60 65 65 64 65 71 71 67 63 56 55 60 66 68 73 81 87 92 89 73 60 57 55 55 56 53 46 39 35 32 31 31 31 29 25 22 22 24 24 22 20 17 15 13 14 14 14 14 14 14 14 13 14 12 12 14 13 10
10 11 12 14 14 27 49 66 83 78 61 76 77 51 46 49 58 77 65 39 29 24 22 20 22 23 18 25 29 22 25 28 44 76 77 56 43 36 51 71 70 69 66 65 74 75 71 68 63 64 65 64 68 71 73 82 90 87 74 65 61 56 54 53 50 45 39 34 31 30 30 29 27 24 22 25 26 24 22 21 18 16 16 18 19 20 20 19 18 16 14 14 14 13 13 13 13
12 18 36 53 34 19 40 61 78 86 72 74 80 63 48 48 65 80 65 48 38 27 25 25 24 20 17 32 33 20 35 48 56 69 50 30 38 44 60 77 74 68 65 65 70 69 66 66 65 67 66 66 73 74 78 85 84 78 77 74 68 64 59 52 47 43 38 34 32 30 29 27 26 27 28 28 24 20 21 22 19 17 19 21 22 21 21 23 23 21 19 15 14 14 13 13 14
12 15 39 70 50 20 33 52 65 76 65 65 79 75 61 57 57 55 54 53 39 30 36 36 29 22 25 36 31 27 47 56 56 58 41 33 46 53 66 77 68 61 62 62 66 67 66 65 63 65 70 77 81 79 80 82 77 70 67 63 58 60 60 50 43 39 34 32 30 29 28 25 26 28 26 22 18 18 21 23 22 20 21 22 22 21 19 19 22 23 23 20 16 13 12 13 13
14 10 20 43 39 26 32 35 51 72 59 46 65 76 71 74 70 57 55 53 44 45 48 45 38 29 33 38 28 32 48 57 63 57 35 35 57 73 78 76 63 53 51 49 53 60 62 61 63 68 77 83 79 71 64 59 59 58 57 55 53 59 63 55 50 47 39 33 30 28 26 24 24 22 20 18 16 18 20 22 24 24 25 25 23 22 19 17 18 21 24 25 23 18 14 13 12
14 10 21 43 50 46 49 45 47 64 52 32 55 79 71 70 73 64 61 62 60 59 47 42 45 36 32 33 27 33 48 59 65 52 33 41 70 85 79 72 63 53 48 42 38 44 47 50 58 67 75 75 67 59 52 47 48 49 54 62 66 70 72 66 61 56 47 39 33 27 25 24 25 22 20 20 18 18 20 20 21 21 20 20 20 19 19 17 18 20 23 26 26 24 20 16 13
16 15 19 51 78 67 62 69 58 46 33 27 59 87 77 69 70 64 71 75 68 61 52 54 57 44 33 29 27 37 49 55 57 51 43 47 68 83 78 70 63 52 48 41 33 34 35 36 43 53 61 65 65 62 57 54 53 52 55 63 69 73 74 69 65 58 51 46 38 28 27 29 31 30 25 24 24 23 22 20 21 23 23 21 20 20 21 22 22 23 23 23 24 24 22 19 16
13 18 18 44 85 80 65 73 74 60 44 39 57 76 79 81 75 65 66 67 65 67 68 67 58 47 43 37 34 42 52 58 57 55 53 51 63 84 89 79 67 58 52 45 40 36 34 36 38 43 52 58 58 55 54 54 51 52 61 68 71 71 71 69 65 63 59 54 43 32 34 38 37 37 34 30 30 30 28 29 31 34 34 31 29 27 27 28 27 27 26 24 21 19 18 16 14
16 11 29 54 79 81 74 74 79 81 73 68 68 68 79 87 75 61 53 51 60 67 66 65 56 48 48 46 45 48 55 59 53 50 58 59 62 81 90 78 66 64 59 50 47 43 36 34 33 34 39 43 42 39 42 46 45 45 55 68 75 75 77 75 71 71 67 58 48 40 43 45 39 37 38 37 36 37 39 40 41 39 36 35 36 34 33 32 31 30 29 26 22 18 15 12 11
45 12 24 58 73 76 81 79 80 85 79 82 88 79 79 82 72 65 59 52 58 63 63 65 61 53 46 40 41 46 50 49 41 46 59 60 59 65 67 64 65 73 68 54 58 68 60 45 39 38 36 34 37 43 47 51 54 56 61 67 72 74 79 82 81 81 77 65 53 48 50 51 43 38 39 41 42 46 48 47 45 41 38 40 40 37 36 35 35 34 31 29 25 19 15 12 10
72 38 30 59 74 73 81 79 76 81 76 75 82 78 75 76 70 64 61 60 64 66 65 63 57 52 47 39 40 46 43 38 38 42 44 51 62 63 63 68 70 73 75 65 66 78 79 75 71 61 49 42 42 46 47 47 53 60 66 73 77 75 75 81 82 79 79 74 61 54 57 55 46 39 41 45 46 47 48 46 43 41 39 40 38 35 34 35 36 36 33 31 28 23 19 15 13
73 72 58 67 79 77 82 88 79 74 74 72 72 74 78 81 73 59 54 56 55 57 62 61 55 53 53 51 52 52 45 40 38 33 37 60 73 63 59 62 54 51 59 60 56 59 71 85 84 69 55 45 43 49 50 50 52 53 59 69 77 74 69 72 74 71 79 82 69 62 65 56 45 42 41 41 40 39 39 38 36 34 32 32 33 34 36 37 38 37 37 36 34 32 29 25 22
66 92 77 66 80 86 86 92 84 72 73 72 69 72 80 81 73 61 55 51 48 52 54 53 56 61 62 59 55 51 48 50 51 50 60 75 68 49 42 40 33 33 42 49 50 51 58 69 74 76 73 56 47 55 61 64 64 60 61 63 63 67 69 68 67 70 82 86 78 75 71 53 40 37 34 32 33 34 32 29 27 26 25 26 31 37 40 41 39 38 38 37 37 37 35 33 30
57 81 78 68 77 87 88 89 84 78 81 79 73 75 77 74 66 61 61 60 55 50 43 47 65 75 71 65 60 54 48 49 57 65 69 63 53 45 37 30 26 26 32 42 47 49 50 47 51 66 77 70 63 66 69 71 70 64 61 55 48 57 72 74 68 72 85 91 88 81 66 47 34 28 26 27 29 29 26 24 23 24 26 31 37 43 46 46 45 43 42 41 40 39 36 34 31
65 68 68 70 77 86 87 85 80 78 84 86 82 77 71 67 65 62 61 63 60 55 52 61 72 72 64 57 52 56 63 63 60 63 63 56 52 48 38 31 29 25 24 28 32 38 37 32 34 39 44 50 59 66 68 68 64 57 52 50 50 60 79 85 77 78 89 93 85 72 59 48 35 25 23 24 23 24 24 23 23 24 28 34 42 47 50 52 52 49 48 46 43 40 37 35 32
76 73 64 65 83 93 88 83 81 77 77 79 80 81 76 70 67 65 66 69 67 65 64 61 58 59 62 59 55 65 82 81 67 59 53 45 41 40 36 33 29 24 23 21 23 27 24 24 31 31 30 38 50 61 64 61 57 51 44 45 57 73 88 93 86 83 88 84 71 60 54 47 36 28 26 22 21 24 24 25 27 28 27 30 37 43 48 52 54 53 50 46 43 42 40 38 35
Wind_Speed
32 32 33 33 33 34 33 33 33 33 32 33 31 30 28 23 22 16 20 27 34 41 37 38 39 39 36 31 30 29 26 24 24 25 28 27 28 25 20 21 21 22 23 23 23 24 26 27 28 28 28 28 28 27 27 26 26 26 26 26 26 25 25 26 26 27 27 26 25 24 22 22 22 21 21 20 19 18 17 16 16 17 17 16 15 14 12 11 10 9 9 8 9 9 9 9 9
31 31 32 33 33 33 33 33 32 33 32 31 29 27 23 19 17 12 21 27 32 39 38 42 38 33 33 29 31 30 27 27 25 26 28 27 28 26 24 24 24 24 25 25 25 26 27 28 28 28 28 28 28 28 27 27 26 26 25 25 25 25 26 27 27 27 27 27 26 25 24 23 24 23 21 20 19 17 17 16 16 16 16 16 15 14 13 12 11 10 9 9 9 9 9 10 10
30 30 31 32 32 33 32 32 32 33 31 31 27 20 14 11 15 20 27 29 36 41 38 41 34 28 29 25 28 30 28 27 27 29 29 29 28 28 28 28 28 29 29 28 28 29 28 28 28 28 28 28 28 27 27 27 26 25 25 25 25 26 27 27 28 27 27 26 26 26 25 24 24 23 21 19 18 17 17 16 16 16 16 16 15 15 13 12 11 10 9 9 9 9 10 10 10
28 29 30 31 31 32 32 32 31 31 30 30 19 10 11 7 14 26 32 36 42 41 39 39 32 28 28 27 30 29 26 24 27 30 29 29 28 29 29 29 31 31 30 29 29 28 28 28 28 28 29 29 28 28 27 27 26 25 25 25 26 27 27 27 28 27 26 26 25 26 26 25 24 22 20 18 18 17 17 16 16 16 15 16 15 14 13 12 11 11 10 9 9 10 10 10 10
27 28 29 29 31 31 31 31 30 30 27 25 9 1 8 8 17 30 37 40 41 41 42 36 30 31 29 28 29 26 26 25 26 28 29 29 27 28 28 29 29 29 29 28 28 27 27 27 28 29 29 29 28 28 27 27 26 25 26 26 27 27 27 28 28 28 26 25 25 26 26 25 23 21 19 18 18 18 17 17 16 16 16 15 15 14 13 12 11 10 10 9 10 10 11 11 10
27 27 28 28 30 29 30 30 29 29 23 20 14 11 9 16 28 39 39 37 41 43 37 29 29 30 27 27 27 27 27 26 27 27 28 27 26 28 27 28 28 28 28 27 27 26 27 28 28 28 28 28 28 28 27 27 26 26 26 27 27 27 28 29 29 28 27 26 26 26 26 25 23 21 19 19 19 19 18 17 16 16 16 16 15 14 13 12 11 10 10 10 10 11 11 11 10
28 27 27 28 29 28 29 29 28 28 21 17 18 16 16 29 37 41 39 38 42 39 30 26 28 27 24 24 27 29 28 28 28 27 28 27 28 29 28 28 28 28 27 26 26 26 27 27 28 28 27 27 27 27 27 26 26 26 27 27 27 28 29 29 29 29 27 26 26 26 26 25 23 22 21 21 20 19 18 17 16 17 17 16 15 14 13 12 11 10 10 10 10 11 11 11 10
28 27 27 27 28 28 28 28 27 26 21 15 17 15 22 37 40 41 41 42 41 34 29 28 28 28 26 24 26 28 28 27 27 28 29 29 29 29 29 28 27 26 25 25 25 25 26 26 27 27 26 26 27 27 27 27 26 27 27 27 27 28 29 29 29 29 27 26 27 27 26 24 23 22 22 22 21 20 19 17 16 16 16 15 14 13 13 12 10 10 10 10 11 10 11 11 10
29 28 27 27 27 27 27 27 25 22 20 17 16 15 27 39 40 43 44 41 37 31 31 29 26 28 28 24 26 27 27 26 27 28 29 29 29 28 27 26 26 24 23 23 24 25 25 25 25 25 25 26 27 27 27 28 27 27 27 27 28 28 28 29 29 28 27 27 27 26 25 23 22 22 22 22 21 21 20 18 17 15 15 14 13 13 13 12 11 10 10 10 10 10 10 10 10
30 28 27 27 26 26 26 24 23 20 16 15 13 19 33 39 38 40 39 35 34 33 31 30 24 25 27 24 25 28 27 27 27 28 28 29 28 27 27 25 24 23 22 24 24 25 24 25 25 24 25 26 27 28 28 28 27 27 27 27 27 27 28 28 28 27 27 27 27 26 24 22 23 23 22 22 22 22 21 20 18 16 15 14 14 14 14 13 12 11 11 10 10 10 10 10 10
30 29 27 27 25 24 23 21 21 16 11 9 12 26 37 37 37 34 29 27 31 34 31 29 26 23 24 22 24 28 28 29 28 27 28 28 26 26 25 24 24 23 23 24 24 24 24 25 25 25 25 26 27 27 26 25 25 27 27 27 27 28 28 27 27 27 27 28 27 25 23 21 23 24 24 24 23 23 22 20 18 16 15 14 14 14 15 14 14 12 11 11 10 10 11 11 11
30 29 28 26 25 23 21 20 15 7 13 12 17 34 37 35 35 28 26 26 28 32 27 25 27 24 24 22 23 26 28 29 28 28 29 27 26 24 23 23 23 23 23 23 23 23 24 24 24 25 26 26 25 25 24 24 26 28 28 28 29 29 27 26 26 27 28 28 26 25 23 21 22 25 25 25 25 26 24 20 18 17 15 14 15 15 15 15 14 13 12 12 11 11 11 12 12
29 29 27 26 25 22 21 18 10 6 8 12 25 37 35 35 32 23 26 27 29 30 21 24 31 26 24 24 25 27 27 27 28 29 28 27 25 24 22 23 23 23 23 23 23 23 23 24 25 26 27 27 27 26 25 26 28 28 27 27 27 26 26 26 26 27 28 27 26 25 23 22 24 25 26 26 27 29 25 20 18 17 15 14 15 15 15 15 15 14 13 13 12 12 12 13 14
29 28 27 27 25 23 21 18 11 10 12 16 30 36 34 38 30 20 23 26 28 22 12 25 33 26 25 25 26 27 25 25 27 27 27 25 24 23 22 23 23 22 22 22 22 22 23 25 26 26 27 28 28 27 26 26 26 25 25 25 24 24 25 25 25 27 27 27 27 25 23 24 26 27 27 28 29 29 24 20 18 15 14 15 16 16 16 15 15 15 15 14 13 14 14 15 15
28 28 28 27 26 23 20 19 15 11 11 20 31 33 36 39 30 21 23 25 21 13 16 25 24 21 25 25 24 24 23 25 26 27 25 23 22 22 22 22 21 20 21 21 21 22 23 24 25 26 27 28 26 24 24 24 23 22 22 22 23 24 24 23 24 26 28 28 26 24 24 25 27 28 28 29 29 28 25 20 15 14 15 16 16 16 16 16 16 16 16 16 15 15 16 17 17
27 27 28 27 26 23 20 17 13 13 14 24 32 31 39 39 31 25 24 25 17 17 25 25 21 22 23 22 22 22 24 25 26 25 22 21 22 21 21 20 20 20 20 21 22 23 23 24 25 26 27 25 22 21 21 21 21 21 21 22 23 22 21 21 22 25 26 26 25 25 26 27 27 28 28 28 28 26 23 17 13 13 15 15 16 16 16 16 16 16 17 17 17 17 18 18 17
27 27 28 27 23 19 18 12 7 13 13 22 32 34 41 35 30 28 24 25 21 22 28 25 26 25 21 20 22 23 24 25 25 24 22 22 22 20 20 20 20 20 20 21 23 23 23 24 25 26 26 24 21 20 20 19 20 21 22 22 21 19 17 19 21 22 24 24 24 25 27 27 27 28 26 25 24 21 16 13 12 14 15 15 16 16 17 16 16 17 18 19 18 18 19 18 18
26 28 27 24 22 18 16 11 5 13 12 23 37 38 39 28 26 28 20 22 24 25 28 26 25 22 22 22 22 24 23 23 23 23 22 21 21 21 21 21 21 21 21 22 22 24 25 25 24 25 24 23 21 21 20 19 20 22 22 20 18 17 17 18 19 20 22 24 25 26 27 27 28 27 24 21 18 14 11 11 13 15 16 16 17 17 17 17 17 17 19 19 19 19 19 18 18
26 26 25 23 21 18 14 10 8 17 22 33 41 39 37 25 26 28 17 20 24 24 27 26 24 22 24 23 22 23 23 23 23 23 21 20 21 21 21 21 21 21 22 22 22 23 24 24 24 24 25 24 24 23 22 22 23 23 21 19 18 17 16 16 16 17 21 25 27 26 26 26 26 23 19 16 13 10 10 11 13 15 16 17 18 18 18 17 17 17 18 19 20 19 18 18 18
26 25 25 22 19 18 16 13 18 27 33 38 40 37 30 19 24 27 20 19 22 25 27 26 25 25 25 24 24 23 23 23 22 21 20 20 22 22 22 22 21 22 22 22 23 23 22 23 24 26 27 25 25 24 23 25 25 23 21 19 17 16 15 15 14 14 19 24 25 23 23 23 22 18 15 13 10 9 11 12 14 15 16 17 18 18 18 17 17 18 18 19 19 19 18 18 19
26 25 24 20 18 19 15 16 28 35 40 38 38 31 16 17 25 24 20 20 22 26 27 24 24 24 24 24 25 24 24 23 20 20 21 22 23 23 23 22 22 22 22 23 23 22 22 23 25 26 27 25 25 24 24 25 25 22 21 19 16 15 13 13 12 13 18 22 20 19 19 18 18 17 14 11 10 10 11 13 14 14 14 15 16 16 16 16 17 18 18 19 19 19 18 19 19
25 25 23 19 20 21 13 18 32 39 42 37 35 25 13 25 29 21 21 22 23 26 26 23 22 22 23 23 23 23 22 21 19 19 21 23 23 23 23 23 22 23 23 23 23 23 24 25 26 27 27 25 24 25 25 25 23 21 19 17 15 14 14 13 13 14 18 19 16 15 13 12 14 14 12 11 12 12 11 12 12 13 13 13 13 13 14 14 16 17 17 17 17 17 17 17 18
24 25 23 20 23 26 24 27 36 39 35 27 28 24 23 30 25 20 20 18 23 27 27 23 20 21 20 20 20 21 21 20 19 18 20 21 22 22 22 23 22 23 23 23 24 24 25 26 26 27 26 24 24 25 24 22 20 18 16 16 15 15 15 14 13 13 15 15 13 12 12 11 11 11 11 13 13 11 10 10 10 11 12 12 11 12 13 14 14 15 15 15 14 13 13 14 16
25 25 23 22 26 31 31 33 37 35 24 19 25 27 29 25 18 20 16 17 25 26 26 23 20 18 16 18 19 19 21 22 22 21 21 20 21 22 22 23 23 24 23 23 24 25 26 26 25 26 24 23 23 22 21 20 18 17 16 15 15 15 15 14 11 11 11 11 12 12 12 11 10 10 12 13 13 11 11 10 9 10 13 12 10 11 12 13 14 14 14 14 14 13 14 14 14
27 25 23 25 28 30 31 33 36 34 22 20 27 27 25 19 16 22 20 22 27 23 23 23 20 18 15 16 16 16 20 23 23 22 23 23 22 24 23 23 23 23 23 24 24 25 26 26 26 26 24 24 23 21 20 19 18 17 17 16 16 16 15 13 11 10 10 11 13 13 11 10 11 11 11 12 13 13 12 11 11 11 12 12 11 11 12 13 12 12 12 14 13 13 15 16 14
28 25 24 27 28 30 32 34 34 33 25 24 29 25 23 19 19 27 25 22 27 24 24 25 20 18 15 15 15 16 22 24 24 23 25 25 23 24 24 23 22 21 22 24 25 25 26 26 26 27 26 25 23 22 20 19 19 18 17 17 16 15 15 14 12 10 10 12 13 12 10 10 12 12 11 10 12 13 13 12 12 12 11 11 12 12 12 12 11 9 10 12 12 12 13 15 14
27 25 28 29 30 32 34 34 32 30 27 27 29 25 23 22 23 30 22 17 25 22 23 29 25 20 19 19 19 20 24 25 25 24 25 25 24 24 24 22 21 21 22 25 25 25 26 26 25 26 26 24 22 22 21 20 19 17 16 15 15 15 14 14 13 12 13 13 11 9 9 8 9 10 11 11 13 15 14 12 11 11 11 11 12 13 13 12 11 9 8 9 9 9 10 12 13
27 28 32 30 30 33 34 34 32 28 29 29 28 25 24 24 26 28 19 20 29 20 21 30 28 25 25 23 24 24 24 24 24 25 25 25 25 24 22 21 20 22 23 24 25 27 27 25 23 23 23 24 23 22 22 21 19 17 15 14 14 13 13 13 14 14 14 13 11 10 9 8 9 12 12 13 14 14 13 12 11 10 10 10 10 11 12 10 10 9 7 7 7 9 10 11 11
28 31 32 28 31 34 33 34 30 27 30 29 28 27 24 24 26 25 18 21 29 23 24 29 25 26 27 24 24 25 24 23 24 25 25 25 24 23 21 20 21 22 23 24 26 27 26 25 23 22 24 26 26 24 24 22 20 19 16 13 14 14 14 13 13 13 12 12 12 12 11 11 12 13 13 13 13 12 13 13 11 11 10 10 8 8 9 8 8 7 6 6 8 10 10 10 10
29 31 31 29 32 33 31 32 29 28 30 29 30 27 23 24 24 20 17 22 26 22 23 26 24 26 27 25 24 24 24 24 25 25 25 25 23 21 20 21 22 23 25 25 26 27 26 24 22 22 23 23 22 21 22 22 20 19 18 15 14 15 15 14 12 10 12 13 12 11 12 13 12 10 10 10 11 12 12 11 11 11 11 11 9 8 7 6 6 6 5 6 7 8 9 9 9
29 30 30 31 32 31 30 31 29 28 29 29 30 27 23 23 22 17 16 27 31 20 19 24 24 26 27 25 24 24 23 24 26 26 25 24 22 20 20 22 23 25 26 26 27 28 25 23 22 21 20 20 20 19 18 18 16 15 17 18 15 16 17 14 11 11 14 14 12 13 13 11 10 9 10 10 11 11 11 11 11 11 11 11 10 8 8 6 6 6 6 6 6 7 8 8 7
28 29 30 31 32 30 29 30 30 30 28 29 31 28 25 22 20 17 15 26 31 20 20 25 25 27 27 24 25 24 24 24 26 26 25 23 21 20 21 23 25 28 28 28 27 24 22 23 22 20 20 22 23 21 19 19 15 13 17 19 17 16 15 13 11 12 14 15 14 15 13 9 8 9 10 11 11 11 11 11 11 11 11 10 10 9 8 7 6 6 6 6 6 6 6 7 6
27 28 28 29 30 29 28 27 27 29 27 29 32 30 25 18 14 14 16 26 31 23 21 26 27 27 27 25 25 24 25 24 23 24 24 22 21 20 23 25 27 30 28 25 24 22 22 22 20 18 19 21 22 21 21 19 16 14 15 17 17 14 13 14 13 13 14 14 13 12 11 9 9 10 11 12 12 11 12 12 12 11 10 10 9 8 7 6 6 6 5 5 6 6 6 6 7
25 26 26 26 26 25 25 21 21 28 26 26 33 32 24 16 13 8 16 31 34 25 22 27 29 26 27 25 22 23 24 23 22 23 24 22 20 22 27 28 29 29 25 23 24 23 22 20 18 17 17 19 20 21 23 21 18 16 13 13 14 14 15 16 14 12 11 10 10 10 10 11 11 11 11 11 12 11 11 11 11 11 11 10 9 8 7 7 7 5 5 6 6 6 6 6 8
19 19 21 22 22 24 22 15 18 30 24 19 28 32 23 18 18 12 16 34 31 21 21 26 29 26 27 25 21 23 23 23 23 22 23 21 21 26 30 30 29 26 23 24 25 23 21 18 17 16 16 17 19 21 23 23 21 21 20 16 14 15 15 13 10 10 10 9 9 10 11 12 12 12 12 12 12 12 11 10 10 10 11 11 10 9 8 8 8 7 6 6 6 6 6 7 8
10 13 15 19 19 20 18 15 17 29 28 21 25 29 23 24 25 18 24 35 26 18 17 20 26 25 25 26 24 23 23 24 23 22 23 22 25 30 30 29 28 24 23 23 22 21 19 18 18 17 17 19 21 22 23 25 25 24 25 22 19 17 14 10 9 10 10 10 11 12 12 13 13 14 14 13 13 12 12 11 10 9 10 11 11 10 10 9 9 8 7 7 7 7 7 8 8
19 20 15 17 19 15 15 17 17 26 31 28 26 26 23 25 25 19 24 33 32 30 21 17 26 25 22 26 26 23 22 23 23 22 23 25 29 32 31 29 27 24 22 21 19 20 19 19 19 19 20 21 22 23 22 24 25 24 23 23 21 18 14 11 11 11 12 12 12 13 14 14 15 15 15 15 14 14 13 12 11 9 10 11 11 11 11 10 9 9 9 8 8 8 8 8 7
28 25 17 12 18 14 13 17 17 25 32 26 25 26 25 25 24 21 24 29 32 35 27 22 28 28 24 26 27 25 23 23 23 22 24 29 31 33 32 29 25 22 21 20 19 19 20 20 21 20 20 21 21 22 22 22 23 22 21 21 20 17 14 11 11 12 12 13 13 14 15 16 16 17 17 17 16 15 14 13 12 11 10 10 10 11 12 12 11 11 10 9 8 8 9 8 7
27 26 22 17 16 14 14 16 19 28 34 26 20 20 24 26 23 25 26 26 29 29 26 26 31 31 28 27 27 27 25 24 24 24 28 33 33 33 32 27 23 21 20 21 20 20 21 21 21 21 20 20 19 18 18 18 19 20 20 19 19 16 13 12 12 12 13 14 14 15 16 16 17 17 18 18 17 17 16 14 14 13 11 10 10 10 11 12 12 12 11 10 9 9 9 9 8
21 25 25 20 15 14 17 19 24 35 38 31 24 19 20 20 23 29 26 25 33 28 19 22 28 30 30 28 27 28 26 25 26 28 33 36 34 33 30 23 20 19 19 21 23 23 23 22 22 21 20 20 18 16 16 17 19 20 19 18 17 15 13 12 12 13 13 14 14 15 16 16 16 17 17 18 18 17 16 15 15 14 13 12 10 10 11 12 13 13 12 11 10 10 9 9 9
18 23 26 22 18 14 16 20 26 33 35 35 32 29 25 19 23 30 26 27 31 24 18 21 25 30 31 29 28 28 27 27 30 33 36 37 35 31 26 19 18 19 20 22 24 24 23 22 22 20 18 18 18 18 18 18 19 20 19 17 16 14 12 12 12 12 13 14 15 15 16 16 16 17 17 18 18 16 15 15 15 15 14 13 12 11 11 12 13 14 14 13 12 11 10 9 9
19 21 22 22 21 17 15 21 25 30 33 29 25 26 29 26 25 27 29 33 32 27 27 25 26 30 31 31 30 29 29 31 34 36 36 35 31 28 24 20 21 21 21 22 23 22 21 21 20 18 17 17 18 19 19 20 21 20 18 17 16 14 13 14 13 14 15 15 16 16 16 16 17 17 18 18 17 16 15 15 15 15 14 13 13 11 11 12 13 14 15 14 13 12 11 11 10
18 19 19 20 23 23 22 21 22 28 30 23 16 17 23 24 25 24 28 34 33 30 31 28 28 32 33 33 30 30 33 36 35 33 32 29 26 27 26 25 25 23 20 19 19 18 18 18 18 18 16 17 20 20 21 22 21 19 17 16 16 16 17 18 17 17 16 17 17 17 17 16 17 18 18 18 17 16 15 15 15 14 13 13 12 12 11 12 13 15 15 15 14 14 13 12 12
16 17 17 18 25 26 26 26 18 19 22 21 18 18 18 17 19 19 21 27 29 29 30 29 30 34 35 32 29 32 36 35 31 27 27 27 26 27 26 23 21 19 19 18 17 15 14 15 17 17 17 17 19 20 19 19 19 19 17 15 15 17 19 20 20 19 18 18 18 17 16 16 17 18 19 18 16 16 15 15 15 14 13 13 12 12 12 12 13 15 15 15 15 15 14 13 13
15 16 14 15 23 26 26 27 18 14 17 21 21 20 19 20 21 22 21 24 26 27 29 29 31 35 33 30 32 36 35 30 27 25 26 28 28 27 24 21 16 14 15 17 15 11 11 13 14 15 16 16 17 17 16 16 18 20 17 16 16 18 19 19 19 19 18 19 18 17 16 15 16 17 17 16 16 16 15 15 15 15 14 14 13 13 12 13 13 14 15 16 16 16 15 14 14
17 20 16 15 22 27 28 26 18 15 19 22 20 20 20 20 25 29 26 25 26 26 28 29 32 32 27 29 35 34 29 26 23 24 28 28 27 25 23 23 20 16 14 14 13 9 7 8 10 13 14 15 16 15 14 14 15 17 17 17 18 19 18 16 15 15 16 17 18 18 16 15 15 15 15 15 16 16 16 16 16 16 15 15 14 14 13 13 14 14 15 16 16 17 16 15 15
19 22 17 16 21 24 27 25 19 19 25 25 20 18 19 19 23 27 26 26 25 23 26 29 29 26 22 26 30 27 24 22 21 24 28 27 25 23 21 22 22 19 16 14 13 10 8 7 8 9 8 9 11 12 12 12 11 12 14 15 16 17 18 16 16 15 16 18 19 18 17 16 15 15 15 15 15 15 15 15 16 16 16 16 15 15 15 14 15 15 16 17 17 17 16 15 15
21 21 17 15 17 20 22 23 23 24 27 24 18 17 19 19 22 24 24 25 24 24 29 30 25 21 21 25 26 23 20 19 22 26 27 26 24 22 21 21 19 16 15 15 15 13 11 10 10 8 8 8 9 10 12 13 13 12 12 12 14 16 18 20 20 20 20 21 20 18 17 16 15 14 14 14 14 15 15 15 15 15 16 16 16 16 16 16 15 16 16 17 18 18 17 17 16
22 20 18 16 16 18 19 19 21 24 24 20 15 17 18 17 22 25 24 25 25 25 29 26 19 18 23 27 27 22 17 17 23 28 29 27 24 23 22 19 15 12 13 16 16 15 14 14 13 13 14 13 10 9 11 12 12 12 12 13 14 16 19 21 22 23 23 22 21 18 18 16 14 14 13 13 14 14 15 15 15 16 16 16 16 16 15 15 15 16 16 17 18 19 19 18 18
21 18 18 18 17 18 18 17 18 19 19 17 16 19 20 19 24 28 29 29 24 21 22 21 18 19 25 28 25 20 15 16 21 27 29 26 21 21 19 14 10 10 12 15 16 16 15 14 13 15 16 15 12 11 12 12 12 12 12 14 16 18 21 22 22 22 22 23 21 19 18 15 13 14 15 15 15 15 16 17 16 16 15 15 15 14 14 14 15 15 16 16 17 18 18 18 18
18 17 18 18 19 19 18 17 17 17 17 15 16 20 22 24 28 31 30 28 25 22 20 18 18 21 26 25 21 18 16 18 23 27 29 24 19 18 16 13 12 11 12 14 16 18 16 13 12 14 14 13 13 14 14 14 13 12 12 14 16 19 21 23 24 23 23 22 21 21 20 16 13 14 16 16 17 17 18 17 16 14 13 13 14 15 16 16 16 16 16 16 16 16 17 17 17
17 19 20 20 20 20 19 17 16 17 19 17 18 22 23 25 28 28 25 25 27 28 24 20 19 22 25 22 17 16 19 21 24 26 25 22 19 20 20 18 15 14 13 14 16 18 17 15 14 14 13 12 13 13 13 13 13 13 13 14 17 19 21 24 25 24 23 23 23 23 22 19 16 15 17 17 17 17 18 17 16 15 15 15 16 17 17 18 17 16 15 15 15 15 15 16 16
18 19 19 19 19 19 18 18 18 19 19 18 21 24 23 24 28 27 24 26 28 29 28 27 24 24 24 20 16 18 22 23 22 21 22 22 20 19 20 17 14 14 15 14 14 16 17 17 15 13 13 13 13 13 12 12 14 15 15 16 18 20 22 23 23 24 24 24 25 26 25 22 19 17 17 17 17 17 17 17 17 17 17 17 16 17 17 17 17 16 15 14 14 14 15 15 15
18 19 19 19 19 20 19 18 19 21 20 20 21 21 18 19 24 26 25 28 30 30 30 29 27 26 25 21 19 22 23 23 23 22 23 23 20 18 18 17 17 18 19 19 17 18 19 18 17 18 17 16 15 15 14 14 15 17 18 19 21 22 22 22 23 23 24 25 27 28 26 22 18 17 16 15 15 15 16 17 17 17 18 17 17 16 15 16 15 15 14 14 15 15 16 16 16
19 17 21 24 23 22 21 20 20 20 19 20 21 18 17 19 23 23 23 27 31 30 27 25 26 27 26 23 23 23 23 24 24 24 24 21 19 20 20 20 21 22 22 22 21 22 21 20 22 23 20 18 18 19 19 18 18 19 20 22 24 24 22 23 24 23 23 25 28 28 25 20 17 16 15 13 14 14 15 15 16 16 16 16 16 16 16 16 15 15 15 15 15 16 17 18 18
23 21 22 25 26 25 22 21 22 20 15 16 17 16 20 24 25 23 21 23 27 28 26 24 24 25 25 24 23 24 25 27 25 23 22 21 21 22 22 23 24 24 25 25 24 24 23 22 23 23 21 21 21 21 22 22 22 22 22 24 26 26 23 23 23 23 23 25 26 26 23 20 19 17 14 14 14 15 15 15 15 15 15 16 16 16 17 17 17 17 17 16 16 17 17 18 19
22 24 25 24 23 24 24 21 21 21 17 16 16 18 24 27 26 25 24 23 24 24 23 23 23 24 24 24 24 24 24 25 26 24 23 23 24 24 23 24 26 26 26 27 26 26 24 22 22 22 22 23 24 23 23 23 23 23 24 24 27 26 23 22 23 23 24 25 26 25 23 22 21 18 16 15 16 17 17 17 17 17 16 17 17 17 18 19 19 19 19 19 18 18 18 18 18
20 20 24 23 20 21 25 24 21 23 23 21 20 21 25 26 26 27 26 24 23 23 23 25 25 25 24 22 23 23 21 21 22 23 24 24 26 27 26 26 26 27 27 26 26 26 24 23 23 22 21 22 22 21 21 21 22 22 24 25 26 25 22 22 23 24 25 25 23 22 21 22 22 19 18 18 18 18 19 19 19 19 19 19 19 19 20 20 20 21 20 20 19 18 18 18 18
Wind_Direction
261 260 259 259 259 258 259 259 260 260 259 261 261 262 263 262 261 257 253 250 248 248 250 254 256 257 261 261 255 262 268 260 258 253 254 260 266 272 273 268 264 265 270 271 272 275 279 282 285 289 291 292 292 294 296 300 303 304 304 304 305 306 306 306 306 306 305 304 302 301 297 295 294 295 298 301 302 300 300 304 309 310 309 306 304 303 301 299 294 290 285 281 279 275 269 265 261
260 258 257 257 257 257 258 258 258 259 258 259 261 263 266 263 258 238 245 256 257 256 254 255 256 258 264 261 259 266 263 259 258 255 255 257 263 267 264 263 265 268 271 272 274 277 282 284 287 290 290 290 291 294 297 300 302 302 302 303 305 304 304 303 304 304 304 302 300 299 297 294 294 295 296 296 295 295 297 302 307 308 308 306 304 302 301 298 294 290 287 283 279 275 270 265 262
260 258 257 256 256 257 257 256 257 258 258 257 259 263 267 256 241 230 236 245 252 259 259 258 260 259 263 259 255 261 260 258 258 256 255 255 258 259 261 263 266 270 273 273 276 280 284 286 289 289 289 289 291 295 298 300 300 301 302 303 303 302 301 301 302 303 302 300 298 296 294 292 292 295 294 291 289 290 294 298 301 304 306 305 302 301 300 297 294 291 287 284 280 276 273 267 264
260 258 257 257 256 257 256 256 256 257 258 257 263 295 300 277 241 242 244 243 250 260 262 261 264 262 261 258 257 262 264 258 254 254 255 256 256 257 261 263 266 271 273 274 277 281 285 288 288 287 288 290 293 297 299 299 300 301 302 302 300 299 298 298 300 301 299 297 294 292 290 288 289 293 290 285 284 287 290 293 297 300 303 302 299 299 298 296 293 291 288 285 282 278 274 269 265
260 258 257 257 257 256 257 257 257 257 259 258 242 17 293 264 238 245 249 248 251 256 257 261 266 265 260 258 261 261 261 257 254 255 254 255 254 256 260 263 268 271 273 275 279 284 287 287 287 288 290 293 296 299 299 299 300 301 301 300 299 297 297 298 298 298 297 294 290 287 285 284 288 289 284 280 281 285 288 290 294 297 300 298 298 298 297 296 293 293 291 289 284 279 276 273 270
260 259 257 257 257 256 258 256 258 257 258 257 212 175 229 226 229 242 252 254 250 252 256 261 263 262 259 256 258 256 256 257 255 254 254 255 255 256 259 264 269 271 275 279 283 287 287 287 288 291 293 296 299 299 299 300 301 301 299 298 297 297 297 296 295 295 293 290 287 285 282 282 286 287 281 278 280 284 287 289 293 297 299 297 297 298 298 298 296 295 294 291 286 282 280 279 276
261 260 258 257 257 256 257 256 258 257 254 250 211 191 221 226 234 244 253 258 254 257 260 256 256 255 253 253 253 252 253 256 256 255 255 257 257 260 264 268 270 273 278 282 286 288 287 289 291 294 296 298 298 298 299 300 300 297 296 296 295 296 296 294 293 292 290 288 286 283 282 282 284 284 280 278 280 283 286 289 293 296 297 296 296 297 298 298 296 295 293 290 287 285 284 283 280
261 260 259 257 258 256 256 257 257 257 253 236 208 211 236 233 239 246 248 253 257 267 268 257 254 250 247 248 249 251 251 251 252 252 255 257 259 264 269 272 272 275 279 282 285 286 287 289 292 295 296 296 296 297 297 296 295 293 294 295 295 296 295 293 291 289 287 285 285 283 282 281 281 281 280 279 279 282 285 289 293 293 293 293 295 296 296 295 295 294 291 289 288 288 287 285 281
260 260 259 257 257 255 255 256 256 258 253 234 214 219 241 244 243 244 247 254 262 271 274 267 255 247 246 245 246 248 248 247 248 251 255 258 261 266 271 272 273 276 279 280 281 282 285 288 291 292 291 292 292 292 291 291 290 291 293 294 296 295 293 291 289 286 284 282 282 281 279 278 277 278 279 278 278 281 283 286 288 289 289 292 296 297 296 294 292 289 287 286 288 288 287 283 278
259 258 257 257 256 256 255 256 256 256 244 234 236 229 236 250 252 249 252 260 267 268 267 265 255 252 254 248 246 249 250 250 250 251 255 259 264 268 269 271 272 276 277 278 279 281 283 285 286 286 286 287 287 287 287 287 289 291 294 295 295 295 293 290 286 283 280 278 278 277 275 275 276 276 277 276 279 281 280 281 280 279 283 289 294 297 296 294 290 286 284 283 283 283 280 278 273
257 257 256 256 255 255 254 254 255 253 256 240 233 245 246 252 258 260 264 261 261 264 265 262 256 258 263 253 246 249 251 253 252 252 255 259 265 267 268 270 274 276 277 279 279 280 282 283 285 285 285 286 286 285 286 288 291 294 295 295 294 294 292 287 282 280 276 274 275 274 272 274 275 277 278 276 277 276 275 274 272 272 277 283 290 294 295 292 289 286 284 282 279 276 275 271 268
254 254 254 255 254 253 251 250 247 258 312 302 238 249 256 255 260 266 267 260 253 256 259 260 257 253 253 249 244 246 248 252 254 255 257 260 263 265 267 271 275 277 278 280 279 279 282 283 284 283 282 282 283 284 286 289 292 294 293 293 294 293 289 283 279 275 273 273 274 273 273 276 277 277 277 275 274 273 271 268 268 271 275 280 287 292 293 291 289 287 285 283 278 274 271 268 266
251 252 251 251 251 249 246 240 224 201 267 273 243 251 261 262 265 262 255 253 251 254 254 256 258 253 248 246 245 246 248 252 254 255 258 261 261 263 267 272 276 276 278 280 280 280 281 281 280 280 279 278 280 284 285 288 291 291 291 293 293 292 287 280 275 272 272 272 273 273 273 275 273 272 273 275 275 272 270 267 268 273 275 280 287 289 290 289 289 289 286 281 278 273 269 266 265
249 249 248 247 246 243 241 229 208 205 219 236 245 256 264 264 264 256 250 249 253 262 252 252 259 257 247 245 246 246 248 251 252 255 258 259 262 269 273 275 276 276 277 278 279 279 277 277 278 278 279 278 281 285 286 286 288 289 290 291 290 290 286 280 277 275 273 272 271 271 272 273 273 273 274 276 275 272 268 264 268 273 277 282 286 288 287 287 288 289 288 284 279 274 269 266 265
247 247 246 245 244 240 237 227 209 204 226 245 248 256 262 264 266 257 251 248 250 250 233 247 262 257 243 239 244 244 245 247 250 254 256 259 266 272 274 276 278 278 277 278 276 276 275 277 279 280 281 284 287 288 287 284 284 290 291 288 289 290 286 284 286 283 276 271 269 271 273 272 271 271 272 273 273 274 270 266 270 276 280 283 285 286 286 286 287 288 289 287 281 275 270 266 264
245 245 245 243 243 240 233 228 219 209 219 243 242 249 258 262 267 260 249 243 231 231 237 243 251 249 242 236 240 242 243 247 250 253 254 260 266 270 274 277 278 277 277 277 277 276 278 280 282 284 287 293 297 293 288 286 285 290 291 288 289 289 286 286 290 286 279 273 270 271 270 266 265 265 267 270 274 276 273 270 274 280 283 286 286 287 288 289 289 289 288 286 282 276 271 267 265
243 243 243 243 241 235 226 212 228 237 234 256 249 244 251 256 267 262 250 241 227 235 244 243 244 244 241 236 236 240 243 246 250 252 253 258 265 270 274 275 275 275 276 275 278 281 283 285 287 289 293 298 299 293 289 289 287 288 289 289 288 286 280 277 282 283 279 275 269 268 267 264 263 265 268 272 274 272 270 272 279 285 287 288 289 290 290 290 291 290 287 285 281 275 270 268 267
241 242 242 242 236 225 213 184 213 244 225 250 252 247 247 247 260 262 248 238 232 239 246 246 248 242 236 233 232 237 239 242 248 252 254 258 265 268 268 269 271 273 275 277 281 284 286 289 291 293 295 297 298 294 289 286 286 287 287 286 282 275 269 268 276 280 279 273 264 265 268 265 264 268 270 269 266 261 264 276 283 286 287 287 288 289 289 289 289 287 285 283 279 273 270 269 268
238 241 241 238 232 216 191 167 230 239 215 230 245 251 252 246 251 257 250 241 236 239 245 245 246 240 234 232 232 234 235 240 248 252 254 258 260 260 260 261 267 272 276 281 283 285 289 293 294 293 293 294 295 294 288 285 286 286 282 277 272 266 266 269 273 278 279 270 264 268 271 269 270 270 266 260 258 258 268 276 280 282 283 283 283 284 285 286 286 283 281 278 276 274 271 269 267
235 238 239 235 227 209 179 185 227 228 220 227 241 252 260 259 249 252 251 245 241 241 245 243 241 240 235 234 235 237 240 243 247 251 252 254 254 253 255 259 265 272 278 281 283 286 290 293 291 289 290 290 290 289 286 285 286 284 277 270 268 265 264 265 270 279 278 269 265 269 271 270 270 264 258 257 260 266 269 269 272 277 279 281 282 282 281 281 281 277 276 273 272 272 270 267 264
234 237 239 232 215 200 184 216 227 224 226 229 240 252 267 257 241 243 246 241 240 242 245 242 238 236 233 233 233 234 238 241 245 251 249 247 249 252 254 260 265 269 276 280 283 286 287 288 288 287 288 287 287 286 284 284 284 280 272 266 265 263 259 261 268 274 272 268 265 265 264 263 259 253 253 257 263 269 268 266 270 276 280 283 285 285 281 277 275 272 271 270 269 267 266 265 264
233 235 235 225 207 192 189 241 238 229 232 235 244 252 256 247 241 237 238 238 240 242 247 244 238 235 234 234 231 232 235 236 243 247 243 243 246 252 257 262 266 271 275 280 283 285 284 284 285 286 287 286 284 284 283 282 279 275 267 262 263 261 260 263 267 269 267 267 265 258 254 255 254 253 255 263 271 272 268 269 275 281 284 284 286 287 281 275 272 270 267 264 265 265 262 263 264
231 230 227 219 213 204 201 226 238 238 239 244 251 249 242 245 247 243 235 235 235 235 243 243 240 241 242 241 236 240 237 230 238 241 240 245 250 256 264 268 271 275 278 282 284 284 282 283 284 285 286 285 281 279 279 276 272 271 264 257 257 257 257 259 266 265 261 263 259 251 250 252 253 259 267 275 280 279 276 280 285 287 286 283 280 280 279 273 268 268 266 261 265 264 257 264 265
229 228 223 215 216 220 218 222 238 250 249 246 244 239 238 240 248 248 232 227 230 229 239 238 234 238 240 241 243 246 237 230 239 246 249 253 260 265 267 271 274 277 281 282 283 284 282 283 285 284 286 285 279 271 268 268 267 264 260 253 251 251 249 253 258 248 242 251 256 255 256 250 254 272 280 283 288 292 294 297 295 286 283 282 278 274 272 269 267 270 272 268 264 252 250 262 264
230 226 222 219 218 223 232 235 243 252 248 236 238 236 237 233 233 241 228 227 234 229 236 237 233 235 233 240 246 240 231 238 248 249 255 259 262 266 267 271 275 279 284 284 284 286 286 286 283 281 280 277 272 262 259 264 262 258 258 251 245 244 244 246 243 235 239 253 259 258 254 258 274 288 293 292 293 296 299 299 293 285 283 284 281 274 266 264 266 269 278 279 263 247 250 253 252
232 228 224 225 224 222 231 239 243 250 247 238 240 237 234 228 223 236 234 235 240 232 235 238 234 234 236 244 245 234 234 245 254 253 256 260 260 264 268 273 279 284 286 284 284 283 286 286 284 282 277 270 264 258 260 264 259 255 255 248 242 244 244 241 234 235 250 259 260 255 255 274 286 289 296 296 295 296 296 292 287 289 291 288 284 282 278 272 272 270 280 281 257 243 246 244 245
233 232 229 225 226 226 232 241 243 247 248 242 243 239 232 226 225 235 236 238 240 230 233 236 231 232 239 245 241 238 245 250 253 255 256 258 260 264 270 276 283 285 280 281 281 279 279 282 284 284 276 267 261 257 261 262 256 251 248 242 237 238 241 241 240 246 255 256 258 262 268 287 292 292 297 294 292 292 290 289 288 293 297 295 292 294 293 286 285 285 289 285 260 249 252 249 253
234 235 234 227 227 231 234 241 243 242 245 245 244 242 235 228 229 235 229 236 246 233 229 236 232 234 237 238 240 240 247 253 255 256 257 259 262 266 273 280 281 278 275 276 277 276 276 279 281 279 274 270 266 263 262 258 251 242 237 233 228 236 246 242 243 252 255 252 264 282 285 289 287 286 289 289 293 291 286 287 291 294 297 299 300 299 298 294 293 294 292 292 282 275 272 268 267
236 238 239 234 232 235 236 242 244 242 245 247 247 243 237 232 233 237 224 231 248 237 226 236 236 237 239 236 238 241 247 256 260 259 260 263 266 271 276 278 275 272 271 271 273 272 273 276 275 272 272 268 261 258 258 253 243 232 224 222 227 245 255 243 238 248 255 259 277 287 278 273 274 276 283 288 293 289 282 284 287 291 295 299 303 302 301 299 297 294 285 280 279 279 278 278 276
238 240 242 240 237 236 239 243 245 243 245 248 250 246 240 238 235 236 224 220 235 236 228 234 236 235 241 242 240 246 253 257 260 261 263 265 269 272 275 275 271 267 266 266 266 266 269 274 274 275 275 265 255 255 255 248 237 224 217 223 235 244 244 237 238 251 263 269 284 288 276 275 277 283 289 290 288 284 284 287 290 292 297 303 309 313 310 305 298 294 287 279 280 283 282 283 283
241 242 242 242 240 238 238 242 243 242 244 246 249 249 242 240 238 229 226 233 237 243 242 236 233 233 238 244 246 252 259 257 258 262 263 266 268 271 272 270 266 263 261 259 258 262 271 275 274 277 276 263 258 264 261 248 234 220 222 230 235 235 234 241 252 263 269 269 278 285 284 287 290 293 294 292 291 290 291 292 295 298 302 307 313 319 320 323 315 303 301 298 300 303 297 294 291
243 244 243 242 241 239 238 241 241 238 241 245 247 249 242 240 242 224 222 251 252 243 245 243 233 233 236 240 246 253 259 257 257 261 263 265 267 269 267 263 261 258 256 258 261 266 272 272 274 275 268 259 257 262 260 252 244 235 237 237 231 229 238 255 263 265 269 267 269 276 282 289 293 296 294 292 291 293 295 295 298 302 304 308 313 317 320 325 321 310 311 311 311 311 306 304 297
244 243 243 244 243 241 239 240 245 242 239 244 246 244 240 238 231 222 236 260 261 241 235 246 237 232 237 238 244 251 256 258 257 260 262 263 265 264 259 255 254 255 258 264 269 272 271 271 279 281 270 259 256 257 251 249 245 236 237 231 221 224 242 255 260 265 270 269 269 274 282 289 290 288 284 286 289 293 296 296 299 301 301 303 305 309 310 309 307 304 303 300 300 298 289 290 286
245 244 242 243 244 245 240 232 243 248 240 241 248 243 235 225 195 201 251 253 258 251 231 240 239 234 238 238 244 252 255 259 259 259 261 261 261 257 253 251 250 255 263 269 268 269 273 275 280 281 275 264 259 256 250 247 244 237 232 217 211 224 242 253 261 266 268 267 269 275 280 281 279 277 276 280 284 287 291 294 297 299 298 298 297 299 299 294 293 291 286 286 291 290 284 280 275
249 253 251 247 242 242 237 206 227 254 250 237 248 247 230 206 187 163 211 232 247 250 223 234 241 234 239 242 245 253 256 258 258 259 259 257 254 251 250 250 252 257 262 264 264 264 267 270 271 273 273 267 262 259 255 252 252 252 249 242 241 245 248 256 261 259 257 258 266 270 271 273 273 274 274 274 277 280 284 288 291 294 293 290 288 289 288 284 286 284 278 278 280 280 280 274 268
232 245 252 259 249 238 230 191 214 254 259 251 250 246 227 204 200 182 197 217 233 237 216 230 245 239 239 246 249 251 252 254 258 261 259 255 250 249 250 251 256 261 261 259 263 265 263 261 262 266 265 263 263 263 260 256 256 259 253 251 258 257 252 251 247 247 250 252 259 264 268 273 276 276 276 275 277 280 283 286 289 290 288 286 283 282 281 280 283 286 281 276 275 272 269 265 263
202 214 217 255 254 231 224 201 209 247 252 255 254 238 223 212 209 203 215 224 229 238 236 235 248 248 241 247 253 252 252 255 260 261 259 254 249 250 253 255 258 262 264 262 261 263 263 259 258 261 259 260 263 262 261 259 257 256 251 249 254 253 246 241 239 243 249 256 263 268 273 276 277 278 277 278 280 283 286 288 288 288 287 287 284 282 281 281 281 281 279 276 275 271 267 266 264
209 206 186 223 243 221 221 205 202 244 247 246 253 240 223 220 216 209 226 239 234 234 238 239 251 256 249 248 253 254 256 257 257 257 255 251 250 253 255 257 259 259 264 265 262 261 260 258 256 257 259 262 265 260 257 257 252 247 246 248 249 245 239 236 239 244 253 263 270 273 276 278 279 279 279 279 279 281 284 286 287 288 289 289 288 286 283 281 278 274 273 273 272 272 273 274 269
219 210 190 188 214 210 218 209 198 235 243 231 238 246 229 222 224 218 221 244 251 241 236 240 250 257 254 250 252 256 257 254 254 253 250 250 250 254 255 256 259 261 265 267 267 264 259 257 257 256 258 262 264 257 250 248 244 240 242 247 247 239 232 232 238 247 256 265 270 274 276 278 279 279 280 280 278 279 281 285 288 288 288 288 288 290 288 283 278 274 272 271 267 267 270 273 274
228 222 217 197 188 194 213 220 212 229 240 232 227 241 238 221 226 230 220 233 252 250 238 239 247 253 255 252 252 254 253 252 251 247 246 249 249 249 253 257 260 263 267 268 267 264 261 260 259 258 261 261 255 246 243 242 236 233 237 242 238 228 224 232 242 251 259 265 270 273 274 276 277 278 279 279 279 280 284 288 291 289 288 288 288 291 293 288 285 282 278 273 268 265 265 269 274
227 224 230 213 182 178 213 229 228 232 240 242 239 241 241 225 225 233 223 224 242 249 247 246 249 252 253 252 250 249 249 248 246 245 246 248 245 244 252 262 265 262 262 262 263 263 263 261 260 261 261 254 241 237 245 243 230 227 232 234 227 223 228 239 250 258 263 268 272 274 275 276 277 279 279 279 279 280 283 286 286 287 288 289 291 293 295 293 292 288 282 278 275 273 271 268 269
226 220 225 216 188 174 205 234 246 244 240 248 254 243 235 230 231 234 230 235 246 253 254 252 251 252 250 249 248 247 247 243 242 246 249 246 244 249 258 263 262 260 257 258 260 262 262 262 263 264 258 247 240 246 253 244 231 227 229 229 225 229 239 246 254 259 263 266 270 273 275 277 279 279 279 278 277 277 279 281 280 282 284 287 289 291 294 296 295 291 287 284 281 279 278 276 275
226 219 218 215 203 191 191 213 248 253 243 249 262 240 229 236 245 240 235 245 250 250 251 250 249 250 249 249 247 245 244 242 243 247 246 244 249 256 258 257 259 260 261 264 266 269 270 267 266 264 260 255 254 258 258 247 236 227 225 228 231 240 249 254 258 259 262 264 265 267 270 274 277 278 278 276 275 276 277 278 277 277 279 283 286 288 291 294 294 293 293 292 289 286 284 284 283
224 216 213 210 214 213 198 196 227 251 238 239 247 239 225 226 240 236 233 246 250 247 247 247 247 248 250 253 252 249 247 245 246 248 246 250 256 258 255 257 262 259 257 265 271 277 279 270 263 259 257 257 257 258 253 245 234 226 230 239 244 254 261 263 263 261 261 261 261 262 264 269 273 275 276 275 275 278 279 278 276 275 276 279 284 288 290 291 291 293 294 294 292 291 288 286 284
217 207 211 216 217 221 212 203 217 244 236 232 237 241 230 216 225 235 239 246 248 249 249 245 244 248 254 256 252 250 247 242 242 247 250 252 254 255 252 253 262 257 249 258 266 272 276 267 257 250 249 249 248 248 246 242 232 231 246 257 258 268 273 271 269 265 263 263 262 262 262 265 270 272 274 276 279 281 280 279 277 276 276 279 282 286 289 290 290 290 291 291 289 288 287 286 285
215 213 214 220 216 215 217 217 224 239 239 232 228 236 233 218 229 241 245 247 249 251 250 245 244 247 252 252 250 252 248 241 239 242 245 246 247 252 250 249 260 266 259 260 266 269 268 264 253 244 244 245 243 242 245 246 242 246 261 267 265 270 272 271 274 275 274 270 266 264 262 262 266 270 273 277 281 281 280 279 277 277 278 279 282 284 287 288 289 290 290 290 288 286 284 283 283
216 222 218 216 212 213 221 227 230 236 240 235 226 232 231 219 232 243 245 249 253 253 248 245 243 244 244 246 250 255 251 246 241 237 240 243 245 248 250 252 260 265 265 265 266 264 257 264 265 245 232 240 245 243 246 249 251 257 266 272 273 270 265 265 273 281 281 276 269 264 262 261 262 266 271 274 277 278 278 277 277 278 278 279 281 283 286 288 289 290 290 291 290 287 285 282 280
215 220 215 212 211 213 221 227 228 231 238 237 227 234 237 225 229 240 244 243 242 244 246 246 243 241 243 246 249 247 244 244 242 242 245 245 246 250 252 252 254 259 268 270 266 264 262 265 266 245 230 247 258 255 256 257 257 261 265 273 277 272 265 264 268 274 275 273 271 265 262 263 263 264 266 269 273 275 276 277 276 277 277 279 282 285 288 289 289 289 289 289 289 288 286 283 281
217 218 211 205 210 217 220 224 229 233 239 238 225 231 239 230 228 236 238 234 234 245 252 252 245 242 246 249 248 240 236 242 241 242 246 244 245 252 249 244 246 257 272 275 273 272 271 268 263 256 253 258 264 268 268 264 262 266 266 268 272 270 266 263 265 268 267 267 270 265 261 264 266 265 264 265 270 273 274 275 276 277 277 278 281 285 288 290 290 289 288 288 289 288 287 285 284
218 215 209 204 209 220 221 220 225 233 240 239 230 226 225 225 229 234 234 232 237 249 255 252 243 238 240 242 243 237 232 237 235 237 243 244 248 253 246 240 250 262 267 272 273 269 267 265 260 256 258 260 266 274 273 268 272 275 268 264 267 268 265 261 261 265 265 264 265 263 260 263 268 266 263 262 264 267 270 272 275 278 278 276 277 280 285 290 292 291 291 290 289 289 288 286 285
225 212 209 212 214 220 224 222 220 226 233 233 233 229 220 221 231 236 238 238 239 242 245 246 240 236 235 231 231 228 221 227 234 237 240 242 248 254 251 250 257 260 261 264 268 268 262 260 261 261 263 267 272 277 277 274 278 282 275 269 268 268 266 261 259 262 263 260 258 259 260 266 273 267 259 256 257 261 264 267 270 273 272 271 274 279 284 287 289 288 288 288 288 288 288 287 286
226 215 210 216 218 221 223 222 219 222 225 218 220 228 225 224 232 237 239 241 241 242 244 244 241 240 239 234 231 229 226 230 237 239 240 242 250 256 256 255 257 264 266 264 274 278 268 258 266 270 266 266 270 274 278 278 278 282 281 280 278 273 268 262 258 259 259 254 252 253 258 269 279 269 254 250 251 254 258 261 263 265 265 268 275 282 285 285 284 283 282 282 283 284 284 284 284
221 219 215 219 225 227 227 229 227 226 227 222 222 232 233 231 236 240 238 239 240 242 243 243 244 245 243 239 235 235 236 238 239 241 248 254 257 258 259 261 265 274 281 283 290 296 284 267 271 284 278 270 268 267 270 272 274 278 280 285 287 280 270 261 256 257 257 251 247 250 257 268 274 260 246 244 247 249 253 257 261 265 267 273 279 283 284 282 280 279 280 282 283 284 285 284 284
218 218 213 216 223 228 229 231 231 227 226 226 228 238 242 240 243 244 242 244 244 242 242 244 246 246 242 237 233 235 241 243 245 248 249 251 253 258 266 274 276 278 286 294 295 299 296 279 276 290 287 274 272 272 271 274 277 277 279 286 290 284 273 262 256 258 256 246 243 249 258 264 261 247 238 241 246 249 253 257 262 267 273 278 281 281 278 275 274 274 276 281 285 288 290 289 288
216 221 216 212 214 220 224 225 229 230 228 225 227 238 253 254 251 247 243 244 247 249 250 251 249 242 237 239 238 239 243 247 251 250 246 248 258 267 272 277 278 277 282 289 288 290 293 284 282 288 281 270 275 279 277 281 285 284 282 285 288 285 275 262 257 258 252 242 242 250 255 253 247 239 237 244 251 254 256 259 263 269 275 280 281 277 272 268 266 267 269 273 278 283 287 289 289
215 222 220 216 216 220 223 224 226 228 228 228 224 228 244 249 251 252 248 247 255 261 261 256 249 238 233 236 239 240 243 246 248 247 250 261 271 271 270 272 274 275 279 284 285 286 287 283 284 285 279 276 280 278 277 281 287 289 286 284 285 284 273 259 254 254 247 241 244 250 250 242 237 237 241 248 254 256 258 260 264 269 274 278 278 274 271 269 269 270 270 272 275 279 282 284 285
220 223 220 217 219 225 228 227 225 224 224 230 228 225 235 242 248 254 255 257 262 262 257 256 256 251 244 240 242 246 247 246 244 246 257 269 272 270 269 268 270 272 275 279 281 283 283 280 278 277 277 280 280 277 277 279 283 288 288 287 286 282 269 255 249 247 244 243 247 250 244 235 233 236 241 247 251 254 257 260 264 268 271 274 273 272 271 273 274 275 276 278 280 282 282 283 283
222 229 228 225 225 228 230 230 230 227 223 227 229 230 235 241 248 254 257 260 259 251 251 260 267 265 257 248 245 247 248 250 251 252 258 263 265 268 269 267 269 271 272 274 277 279 281 280 277 275 277 279 279 279 279 278 282 285 286 287 286 277 261 250 246 244 242 243 244 244 236 230 233 239 243 246 249 253 257 261 264 266 268 270 270 270 270 271 273 274 276 279 282 283 282 282 282